TimeGMT,TemperatureF,Dew PointF,Humidity,Sea Level PressureIn,VisibilityMPH,Wind Direction,Wind SpeedMPH,Gust SpeedMPH,PrecipitationIn,Events,Conditions,WindDirDegrees,DateUTC
2:50 AM,38,38,100,29.89,8,SSE,9.2,,,Rain,Rain,150,2012-12-03 02:50:00
5:50 AM,44,44,97,29.76,9,South,15.0,,,Rain,Light Rain,190,2012-12-03 05:50:00
7:20 AM,46.4,44.6,93,29.71,6.2,SW,5.8,-,N/A,Rain,Light Rain,220,2012-12-03 07:20:00
7:50 AM,48.2,46.4,93,29.71,6.2,WSW,12.7,-,N/A,,Mostly Cloudy,250,2012-12-03 07:50:00
8:20 AM,48.2,46.4,93,29.71,6.2,West,12.7,-,N/A,,Mostly Cloudy,260,2012-12-03 08:20:00
8:50 AM,49,49,100,29.73,17,West,12.7,,,,Partly Cloudy,260,2012-12-03 08:50:00
8:50 AM,48.2,46.4,93,29.71,6.2,West,13.8,-,N/A,,Mostly Cloudy,270,2012-12-03 08:50:00
9:20 AM,50.0,48.2,94,29.71,6.2,West,11.5,-,N/A,,Mostly Cloudy,260,2012-12-03 09:20:00
9:50 AM,50.0,48.2,94,29.71,6.2,West,9.2,-,N/A,,Mostly Cloudy,260,2012-12-03 09:50:00
10:20 AM,48.2,46.4,93,29.71,6.2,SW,5.8,-,N/A,,Mostly Cloudy,230,2012-12-03 10:20:00
10:50 AM,50.0,48.2,94,29.68,6.2,SW,8.1,-,N/A,,Light Drizzle,230,2012-12-03 10:50:00
11:20 AM,50.0,48.2,94,29.68,6.2,WSW,10.4,-,N/A,,Mostly Cloudy,240,2012-12-03 11:20:00
11:50 AM,50,50,100,29.69,4,WSW,13.8,,,Rain,Rain,240,2012-12-03 11:50:00
11:50 AM,50.0,48.2,94,29.68,6.2,WSW,10.4,-,N/A,Rain,Light Rain,240,2012-12-03 11:50:00
12:20 PM,50.0,48.2,94,29.68,2.5,West,15.0,-,N/A,Rain,Rain,260,2012-12-03 12:20:00
12:50 PM,50.0,48.2,94,29.68,6.2,West,16.1,-,N/A,,Scattered Clouds,280,2012-12-03 12:50:00
1:20 PM,50.0,48.2,94,29.68,6.2,West,16.1,-,N/A,,Scattered Clouds,280,2012-12-03 13:20:00
1:50 PM,50.0,46.4,87,29.68,6.2,West,18.4,-,N/A,,Scattered Clouds,270,2012-12-03 13:50:00
2:20 PM,46.4,44.6,93,29.68,6.2,NW,17.3,-,N/A,,Mostly Cloudy,310,2012-12-03 14:20:00
2:50 PM,46.4,42.8,87,29.68,6.2,WNW,17.3,-,N/A,,Scattered Clouds,290,2012-12-03 14:50:00
3:20 PM,44.6,39.2,81,29.68,6.2,West,19.6,-,N/A,,Scattered Clouds,280,2012-12-03 15:20:00
3:50 PM,44.6,39.2,81,29.71,6.2,West,18.4,-,N/A,,Partly Cloudy,280,2012-12-03 15:50:00
4:20 PM,42.8,39.2,87,29.71,6.2,West,15.0,-,N/A,,Partly Cloudy,270,2012-12-03 16:20:00
4:50 PM,42.8,37.4,81,29.71,6.2,West,11.5,-,N/A,,Partly Cloudy,260,2012-12-03 16:50:00
5:20 PM,42.8,37.4,81,29.71,6.2,West,10.4,-,N/A,,Partly Cloudy,260,2012-12-03 17:20:00
5:50 PM,41,37,80,29.71,22,West,12.7,,,,,260,2012-12-03 17:50:00
5:50 PM,41.0,35.6,81,29.68,-9999.0,West,10.4,-,N/A,,Clear,260,2012-12-03 17:50:00
8:50 PM,39,37,88,29.67,16,WSW,6.9,,,,Overcast,250,2012-12-03 20:50:00
8:50 PM,39.2,35.6,87,29.65,-9999.0,West,5.8,-,N/A,,Clear,260,2012-12-03 20:50:00
9:20 PM,39.2,35.6,87,29.65,-9999.0,WSW,5.8,-,N/A,,Clear,240,2012-12-03 21:20:00
9:50 PM,39.2,35.6,87,29.65,-9999.0,West,5.8,-,N/A,,Clear,260,2012-12-03 21:50:00
11:50 PM,36,36,98,29.64,12,WSW,10.4,,,,,240,2012-12-03 23:50:00